CANX-5

Last updated on Thu Nov 06 2025 00:03:48 GMT+0000 (Coordinated Universal Time)

1 40056U 14034D 25309.18243941 .00001528 00000+0 20618-3 0 9993 2 40056 98.3402 170.9430 0013380 16.5705 343.5941 14.80640327602187
UTC large
Height (km)
Speed (km/s)
/
Latitude / Longitude
Inclination (degrees)
Orbital Period (minutes)
Azimuth
Elevation
Range (km)
Doppler Factor

Next 0 passes for location: London (51.5072 / 0.1276)

Sorry there are no passes over London.